This demonstration page uses our WeatherBlox Daily Observations layout. Learn more.

Hourly Observations for July 14, 2020

Temp ( °F °C ) Dew Point ( °F °C ) Humidity (%) Winds ( mph kmh ) Pressure ( in mb ) Visibility ( mi km ) Precip ( " mm )
12:15 am 00:15 Cloudy with Light Thunderstorms 70 20.9 66 19 89 89 SW 17 28 29.9 1013 7 11.26538 0.02 0.508
12:35 am 00:35 Cloudy with Thunderstorms 68 20.1 67 19.2 95 95 Calm 29.87 1011 7 11.26538 0.1 2.54
12:55 am 00:55 Cloudy with Light Rain 69 20.3 67 19.3 94 94 SSE 20 31 29.8 1009 10 16.0934 0.12 3.048
1:15 am 01:15 Mostly Cloudy 68 19.8 66 19 95 95 SSE 18 30 29.76 1008 10 16.0934 0 0
1:35 am 01:35 Windy with Storms Likely 69 20.6 66 19 91 91 SSE 23 37 29.66 1005 10 16.0934 0 0
1:55 am 01:55 Partly Cloudy 71 21.6 63 17.1 76 76 SSE 22 35 29.62 1003 10 16.0934 0 0
2:15 am 02:15 Partly Cloudy 72 22.4 61 16.1 68 68 SE 16 26 29.63 1003 10 16.0934 0 0
2:35 am 02:35 Clear 73 22.5 61 15.9 66 66 SSW 10 17 29.67 1005 10 16.0934 0 0
2:55 am 02:55 Clear 73 23 60 15.4 62 62 S 17 28 29.68 1005 10 16.0934 0 0
3:15 am 03:15 Clear 71 21.8 64 17.5 77 77 S 13 20 29.69 1006 10 16.0934 0 0
3:35 am 03:35 Clear 70 21.2 65 18.2 83 83 SSW 6 9 29.7 1006 10 16.0934 0 0
3:55 am 03:55 Clear 69 20.7 65 18.2 86 86 Calm 29.69 1005 10 16.0934 0 0
4:15 am 04:15 Clear 68 20.1 65 18.2 89 89 Calm 29.71 1006 10 16.0934 0 0
4:35 am 04:35 Clear 69 20.7 64 18 85 85 Calm 29.7 1006 10 16.0934 0 0
4:55 am 04:55 Clear 67 19.2 64 17.7 91 91 Calm 29.73 1007 10 16.0934 0 0
5:15 am 05:15 Clear 67 19.2 64 17.8 92 92 NNW 5 7 29.73 1007 10 16.0934 0 0
5:35 am 05:35 Clear 66 18.9 64 17.5 92 92 Calm 29.74 1007 10 16.0934 0 0
5:55 am 05:55 Clear 65 18.3 63 17.2 93 93 Calm 29.76 1008 10 16.0934 0 0
6:15 am 06:15 Clear 64 17.8 62 16.8 94 94 Calm 29.78 1008 10 16.0934 0 0
6:35 am 06:35 Sunny 64 17.8 63 17 95 95 N 6 9 29.8 1009 10 16.0934 0 0
6:55 am 06:55 Sunny 65 18.5 64 17.5 94 94 N 5 7 29.82 1010 10 16.0934 0 0
7:15 am 07:15 Sunny 67 19.3 64 18 92 92 N 7 11 29.82 1010 10 16.0934 0 0
7:35 am 07:35 Sunny 67 19.6 65 18.2 92 92 Calm 29.81 1010 10 16.0934 0 0
7:55 am 07:55 Sunny 68 19.8 65 18.3 91 91 Calm 29.83 1010 10 16.0934 0 0
8:15 am 08:15 Sunny 69 20.7 66 18.7 88 88 N 5 7 29.82 1010 10 16.0934 0 0
8:35 am 08:35 Sunny 72 22.1 66 18.8 82 82 N 10 17 29.82 1010 10 16.0934 0 0
8:55 am 08:55 Sunny 73 22.9 66 18.7 77 77 N 9 15 29.81 1010 10 16.0934 0 0
9:15 am 09:15 Sunny 75 23.8 66 18.8 74 74 N 7 11 29.82 1010 10 16.0934 0 0
9:35 am 09:35 Sunny 76 24.6 65 18.5 69 69 N 9 15 29.81 1009 10 16.0934 0 0
9:55 am 09:55 Sunny 77 25 65 18.6 68 68 N 9 15 29.81 1009 10 16.0934 0 0
10:15 am 10:15 Sunny 77 25 66 19.1 70 70 NNE 12 19 29.82 1010 10 16.0934 0 0
10:35 am 10:35 Mostly Cloudy 77 25 67 19.7 72 72 NNE 12 19 29.82 1010 10 16.0934 0 0
10:55 am 10:55 Cloudy 77 25.1 68 20.1 74 74 NNE 15 24 29.81 1009 10 16.0934 0 0
11:15 am 11:15 Cloudy 72 22.2 66 18.8 81 81 N 18 30 29.84 1010 10 16.0934 0 0
11:35 am 11:35 Cloudy 73 22.5 66 18.9 80 80 N 16 26 29.87 1011 10 16.0934 0 0
11:55 am 11:55 Cloudy 71 21.5 64 17.7 79 79 NNE 17 28 29.87 1011 10 16.0934 0 0
12:10 pm 12:10 Cloudy 71 21.9 64 17.6 77 77 NNE 18 30 29.88 1012 10 16.0934 0 0
12:35 pm 12:35 Cloudy 71 21.7 63 17.3 76 76 NNE 17 28 29.86 1011 10 16.0934 0 0
12:55 pm 12:55 Cloudy 71 21.9 64 17.5 76 76 NNE 14 22 29.88 1012 10 16.0934 0 0
1:15 pm 13:15 Mostly Cloudy 72 22.3 64 17.5 74 74 NNE 14 22 29.88 1012 10 16.0934 0 0
1:35 pm 13:35 Cloudy 72 22.2 64 17.6 75 75 NNE 14 22 29.87 1011 10 16.0934 0 0
1:55 pm 13:55 Cloudy 74 23.1 64 17.5 71 71 NNE 16 26 29.86 1011 10 16.0934 0 0
2:15 pm 14:15 Cloudy 73 22.5 64 17.6 74 74 NNE 10 17 29.88 1012 10 16.0934 0 0
2:35 pm 14:35 Cloudy 73 23 64 17.8 73 73 NNE 14 22 29.87 1012 10 16.0934 0 0
2:55 pm 14:55 Cloudy 75 23.7 64 17.6 69 69 NE 15 24 29.86 1011 10 16.0934 0 0
3:15 pm 15:15 Cloudy 75 23.7 64 17.7 69 69 NNE 12 19 29.87 1011 10 16.0934 0 0
3:35 pm 15:35 Cloudy 74 23.2 64 17.7 71 71 N 10 17 29.88 1012 10 16.0934 0 0
3:55 pm 15:55 Cloudy 74 23.5 64 17.7 70 70 NNE 12 19 29.89 1012 10 16.0934 0 0
4:15 pm 16:15 Cloudy 74 23.5 64 17.8 70 70 NE 10 17 29.87 1011 10 16.0934 0 0
4:35 pm 16:35 Cloudy 74 23.1 64 17.7 72 72 NNE 12 19 29.87 1012 10 16.0934 0 0
4:55 pm 16:55 Cloudy 74 23.5 63 17.4 69 69 NE 10 17 29.87 1011 10 16.0934 0 0
5:15 pm 17:15 Cloudy 74 23.6 64 17.5 69 69 NE 13 20 29.86 1011 10 16.0934 0 0
5:35 pm 17:35 Cloudy 74 23.3 64 17.7 71 71 NNE 10 17 29.86 1011 10 16.0934 0 0
5:55 pm 17:55 Cloudy 73 23 64 17.7 72 72 NNE 10 17 29.87 1012 10 16.0934 0 0
6:15 pm 18:15 Cloudy 73 22.5 64 17.6 74 74 NNE 9 15 29.89 1012 10 16.0934 0 0
6:35 pm 18:35 Cloudy 72 22.4 64 17.7 75 75 NNE 13 20 29.89 1012 10 16.0934 0 0
6:55 pm 18:55 Cloudy 73 22.5 64 17.8 75 75 NE 9 15 29.89 1012 10 16.0934 0 0
7:15 pm 19:15 Cloudy 72 22.1 64 17.7 76 76 NNE 9 15 29.88 1012 10 16.0934 0 0
7:35 pm 19:35 Cloudy 72 22.2 64 17.7 76 76 NNE 8 13 29.89 1012 10 16.0934 0 0
7:55 pm 19:55 Cloudy 72 22 64 17.7 77 77 NNE 9 15 29.89 1012 10 16.0934 0 0
8:15 pm 20:15 Cloudy 72 22 64 17.7 77 77 N 8 13 29.89 1012 10 16.0934 0 0
8:35 pm 20:35 Cloudy 71 21.5 64 17.6 79 79 NNE 8 13 29.89 1012 10 16.0934 0 0
8:55 pm 20:55 Cloudy 70 21.3 64 17.5 79 79 NNE 8 13 29.9 1012 10 16.0934 0 0
9:15 pm 21:15 Cloudy 69 20.7 64 17.7 83 83 N 6 9 29.91 1013 10 16.0934 0 0
9:35 pm 21:35 Cloudy 69 20.5 64 17.9 85 85 Calm 29.92 1013 10 16.0934 0 0
9:55 pm 21:55 Cloudy 69 20.3 64 18 87 87 N 5 7 29.93 1014 10 16.0934 0 0
10:15 pm 22:15 Cloudy 68 20.2 64 17.8 86 86 N 3 6 29.95 1014 10 16.0934 0 0
10:35 pm 22:35 Cloudy 68 20 64 17.9 88 88 N 3 6 29.96 1014 10 16.0934 0 0
10:55 pm 22:55 Cloudy 68 20 64 17.9 88 88 N 8 13 29.96 1014 10 16.0934 0 0
11:15 pm 23:15 Cloudy 68 20.1 64 17.6 86 86 NNE 7 11 29.96 1014 10 16.0934 0 0
11:35 pm 23:35 Cloudy 68 20 64 17.6 86 86 NE 7 11 29.96 1014 10 16.0934 0 0
11:55 pm 23:55 Cloudy 68 20 64 17.7 87 87 NNE 7 11 29.96 1014 10 16.0934 0 0

Powered by AerisWeather